When you browse on this site, cookies collect data to enhance your experience and personalize the content and advertising you see.
Visit our Privacy Policy to learn more. By continuing to use the site, you agree to this use of cookies and data.
  • en Suisse
  • Liste des pays
  • À 7 jours
  • Température de l'eau
  • Carte satellitaire
  • Carte météo
  • Widgets météo
  • user-avatar
    Se connecter

    Météo par heure à Goslar

    Ce jour, 27 Mai, Lundi

    Heure Température Précipitation Vent Pression Humidité
    00:00 +12°C° 0 mm 3 m/s 729 mmHg 89%
    01:00 +12°C° 0 mm 3 m/s 729 mmHg 90%
    02:00 +12°C° 0 mm 4 m/s 729 mmHg 91%
    03:00 +11°C° 0 mm 4 m/s 728 mmHg 92%
    04:00 +11°C° 0 mm 4 m/s 728 mmHg 93%
    05:00 +11°C° 0.1 mm 4 m/s 728 mmHg 93%
    06:00 +12°C° 0.1 mm 4 m/s 728 mmHg 92%
    07:00 +12°C° 0.1 mm 4 m/s 728 mmHg 92%
    08:00 +12°C° 0.2 mm 3 m/s 729 mmHg 93%
    09:00 +12°C° 0.2 mm 3 m/s 729 mmHg 94%
    10:00 +12°C° 0.2 mm 3 m/s 729 mmHg 94%
    11:00 +13°C° 0.2 mm 3 m/s 729 mmHg 93%
    12:00 +14°C° 0.2 mm 3 m/s 729 mmHg 91%
    13:00 +14°C° 0.2 mm 3 m/s 728 mmHg 89%
    14:00 +14°C° 0.1 mm 3 m/s 728 mmHg 87%
    15:00 +15°C° 0.1 mm 4 m/s 728 mmHg 86%
    16:00 +15°C° 0.1 mm 4 m/s 728 mmHg 84%
    17:00 +14°C° 0 mm 3 m/s 728 mmHg 85%
    18:00 +14°C° 0 mm 3 m/s 728 mmHg 85%
    19:00 +15°C° 0 mm 2 m/s 728 mmHg 86%
    20:00 +14°C° 0.1 mm 2 m/s 728 mmHg 88%
    21:00 +13°C° 0.1 mm 2 m/s 728 mmHg 89%
    22:00 +12°C° 0.1 mm 1 m/s 728 mmHg 91%
    23:00 +12°C° 0.1 mm 1 m/s 728 mmHg 91%

    Demain, 28 Mai, Mardi

    Heure Température Précipitation Vent Pression Humidité
    00:00 +11°C° 0.1 mm 1 m/s 728 mmHg 90%
    01:00 +10°C° 0.1 mm 0 m/s 728 mmHg 90%
    02:00 +9°C° 0 mm 0 m/s 727 mmHg 91%
    03:00 +9°C° 0 mm 0 m/s 727 mmHg 91%
    04:00 +8°C° 0 mm 0 m/s 727 mmHg 92%
    05:00 +9°C° 0 mm 0 m/s 727 mmHg 90%
    06:00 +11°C° 0 mm 1 m/s 727 mmHg 88%
    07:00 +12°C° 0 mm 1 m/s 727 mmHg 87%
    08:00 +13°C° 0.1 mm 1 m/s 727 mmHg 81%
    09:00 +14°C° 0.1 mm 1 m/s 728 mmHg 76%
    10:00 +15°C° 0.1 mm 1 m/s 728 mmHg 70%
    11:00 +15°C° 0.9 mm 2 m/s 728 mmHg 75%
    12:00 +15°C° 0.9 mm 2 m/s 728 mmHg 79%
    13:00 +14°C° 0.9 mm 3 m/s 728 mmHg 84%
    14:00 +14°C° 0.9 mm 3 m/s 728 mmHg 84%
    15:00 +13°C° 0.9 mm 3 m/s 728 mmHg 85%
    16:00 +13°C° 0.9 mm 3 m/s 729 mmHg 85%
    17:00 +12°C° 0.9 mm 3 m/s 729 mmHg 87%
    18:00 +13°C° 0.9 mm 2 m/s 729 mmHg 89%
    19:00 +12°C° 0.9 mm 2 m/s 730 mmHg 91%
    20:00 +10°C° 0.2 mm 2 m/s 731 mmHg 92%
    21:00 +9°C° 0.2 mm 2 m/s 731 mmHg 92%
    22:00 +9°C° 0.2 mm 2 m/s 732 mmHg 92%
    23:00 +8°C° 0 mm 2 m/s 732 mmHg 93%

    Après-demain, 29 Mai, Mercredi

    Heure Température Précipitation Vent Pression Humidité
    00:00 +7°C° 0 mm 2 m/s 733 mmHg 93%
    01:00 +7°C° 0 mm 2 m/s 733 mmHg 93%
    02:00 +6°C° 0 mm 2 m/s 733 mmHg 93%
    03:00 +6°C° 0 mm 2 m/s 734 mmHg 93%
    04:00 +5°C° 0 mm 2 m/s 734 mmHg 94%
    05:00 +6°C° 0 mm 2 m/s 735 mmHg 91%
    06:00 +6°C° 0 mm 2 m/s 735 mmHg 88%
    07:00 +8°C° 0 mm 1 m/s 735 mmHg 86%
    08:00 +9°C° 0 mm 1 m/s 736 mmHg 78%
    09:00 +11°C° 0 mm 1 m/s 736 mmHg 71%
    10:00 +12°C° 0 mm 1 m/s 737 mmHg 63%
    11:00 +14°C° 0 mm 1 m/s 736 mmHg 60%
    12:00 +15°C° 0 mm 1 m/s 736 mmHg 56%
    13:00 +16°C° 0 mm 1 m/s 736 mmHg 52%
    14:00 +16°C° 0 mm 1 m/s 736 mmHg 54%
    15:00 +16°C° 0 mm 1 m/s 736 mmHg 57%
    16:00 +16°C° 0 mm 2 m/s 736 mmHg 59%
    17:00 +15°C° 0 mm 2 m/s 735 mmHg 64%
    18:00 +15°C° 0 mm 2 m/s 735 mmHg 69%
    19:00 +14°C° 0 mm 2 m/s 735 mmHg 75%
    20:00 +12°C° 0 mm 3 m/s 735 mmHg 80%
    21:00 +10°C° 0 mm 3 m/s 735 mmHg 85%
    22:00 +9°C° 0 mm 3 m/s 735 mmHg 90%
    23:00 +9°C° 0 mm 3 m/s 735 mmHg 87%

    30 Mai, Jeudi

    Heure Température Précipitation Vent Pression Humidité
    00:00 +10°C° 0 mm 4 m/s 735 mmHg 84%
    01:00 +10°C° 0 mm 4 m/s 735 mmHg 80%
    02:00 +10°C° 0 mm 4 m/s 734 mmHg 82%
    03:00 +10°C° 0 mm 4 m/s 734 mmHg 85%
    04:00 +10°C° 0 mm 4 m/s 734 mmHg 87%
    05:00 +10°C° 0.1 mm 4 m/s 734 mmHg 88%
    06:00 +10°C° 0.1 mm 5 m/s 734 mmHg 89%
    07:00 +12°C° 0.1 mm 5 m/s 734 mmHg 89%
    08:00 +12°C° 0.1 mm 4 m/s 734 mmHg 89%
    09:00 +13°C° 0.1 mm 4 m/s 734 mmHg 88%
    10:00 +14°C° 0.1 mm 4 m/s 735 mmHg 88%
    11:00 +15°C° 0.2 mm 4 m/s 735 mmHg 85%
    12:00 +17°C° 0.2 mm 4 m/s 735 mmHg 82%
    13:00 +17°C° 0.2 mm 5 m/s 735 mmHg 79%
    14:00 +18°C° 0.1 mm 4 m/s 735 mmHg 76%
    15:00 +18°C° 0.1 mm 4 m/s 735 mmHg 74%
    16:00 +19°C° 0.1 mm 4 m/s 735 mmHg 72%
    17:00 +18°C° 0.1 mm 3 m/s 736 mmHg 76%
    18:00 +18°C° 0.1 mm 2 m/s 736 mmHg 79%
    19:00 +17°C° 0.1 mm 2 m/s 736 mmHg 83%
    20:00 +16°C° 0.1 mm 2 m/s 736 mmHg 87%
    21:00 +14°C° 0.1 mm 3 m/s 736 mmHg 91%
    22:00 +13°C° 0.1 mm 3 m/s 736 mmHg 95%
    23:00 +13°C° 0.1 mm 3 m/s 735 mmHg 95%

    31 Mai, Vendredi

    Heure Température Précipitation Vent Pression Humidité
    00:00 +13°C° 0.1 mm 4 m/s 735 mmHg 95%
    01:00 +13°C° 0.1 mm 4 m/s 735 mmHg 95%
    02:00 +13°C° 2.3 mm 4 m/s 735 mmHg 96%
    03:00 +13°C° 2.3 mm 4 m/s 734 mmHg 96%
    04:00 +13°C° 2.3 mm 4 m/s 734 mmHg 96%
    05:00 +13°C° 0.7 mm 4 m/s 734 mmHg 96%
    06:00 +13°C° 0.7 mm 4 m/s 734 mmHg 96%
    07:00 +13°C° 0.7 mm 4 m/s 734 mmHg 96%
    08:00 +13°C° 0.6 mm 4 m/s 735 mmHg 96%
    09:00 +13°C° 0.6 mm 4 m/s 735 mmHg 95%
    10:00 +13°C° 0.6 mm 5 m/s 735 mmHg 95%
    11:00 +12°C° 0.1 mm 5 m/s 736 mmHg 94%
    12:00 +10°C° 0.1 mm 5 m/s 737 mmHg 93%
    13:00 +10°C° 0.1 mm 5 m/s 737 mmHg 91%
    14:00 +9°C° 0.1 mm 5 m/s 738 mmHg 92%
    15:00 +9°C° 0.1 mm 5 m/s 738 mmHg 92%
    16:00 +8°C° 0.1 mm 4 m/s 739 mmHg 92%
    17:00 +10°C° 0.1 mm 4 m/s 740 mmHg 90%
    18:00 +10°C° 0.1 mm 3 m/s 740 mmHg 88%
    19:00 +10°C° 0.1 mm 3 m/s 741 mmHg 86%
    20:00 +9°C° 0 mm 3 m/s 741 mmHg 88%
    21:00 +8°C° 0 mm 3 m/s 742 mmHg 89%
    22:00 +5°C° 0 mm 3 m/s 742 mmHg 91%
    23:00 +5°C° 0 mm 2 m/s 742 mmHg 92%

    1 Juin, Samedi

    Heure Température Précipitation Vent Pression Humidité
    00:00 +4°C° 0 mm 2 m/s 742 mmHg 93%
    01:00 +4°C° 0 mm 1 m/s 743 mmHg 94%
    02:00 +4°C° 0 mm 1 m/s 743 mmHg 95%
    03:00 +4°C° 0 mm 1 m/s 743 mmHg 95%
    04:00 +3°C° 0 mm 1 m/s 743 mmHg 95%
    05:00 +5°C° 0 mm 1 m/s 743 mmHg 92%
    06:00 +6°C° 0 mm 1 m/s 743 mmHg 88%
    07:00 +8°C° 0 mm 1 m/s 744 mmHg 84%
    08:00 +10°C° 0 mm 1 m/s 744 mmHg 74%
    09:00 +12°C° 0 mm 1 m/s 744 mmHg 64%
    10:00 +14°C° 0 mm 1 m/s 744 mmHg 54%
    11:00 +15°C° 0 mm 1 m/s 744 mmHg 51%
    12:00 +16°C° 0 mm 2 m/s 744 mmHg 49%
    13:00 +17°C° 0 mm 2 m/s 744 mmHg 47%
    14:00 +18°C° 0 mm 1 m/s 743 mmHg 48%
    15:00 +18°C° 0 mm 1 m/s 743 mmHg 48%
    16:00 +18°C° 0 mm 1 m/s 743 mmHg 49%
    17:00 +18°C° 0 mm 1 m/s 743 mmHg 55%
    18:00 +16°C° 0 mm 1 m/s 743 mmHg 62%
    19:00 +15°C° 0 mm 1 m/s 743 mmHg 69%
    20:00 +13°C° 0 mm 1 m/s 743 mmHg 71%
    21:00 +12°C° 0 mm 1 m/s 743 mmHg 74%
    22:00 +10°C° 0 mm 1 m/s 743 mmHg 76%
    23:00 +10°C° 0 mm 1 m/s 743 mmHg 79%
    Voir plus